FENGYUN 1C DEB, 30708

Orbit data source: Space-Track

FENGYUN 1C DEB, 30708 is space debris in SSO originally from a launch on Mon, 10 May 1999 UTC launched from the Taiyaun Space Center, China (TSC). Fengyun 1C debris stems from the Chinese weather satellite Fengyun-1C, which was intentionally destroyed by a Chinese anti-satellite missile in 2007. This event dramatically increased the amount of space debris, with thousands of trackable fragments posing hazards to satellites and human spaceflight. The Fengyun 1C debris cloud has become a focal point in discussions about space sustainability and the need for international regulations to prevent the creation of new debris.

Loading next visibility...
Identifier
30708, 1999-025ARS
Orbit
SSO
Country
Flag of CNCN / PRC
Related business
Manufacturer
Unknown
Mission
Spacecraft
Bus & Motor
Unknown
Mass
Unknown
Launch date (UTC)
1999-05-10 (27 years ago)
Launch vehicle
Unknown
Launch site
Taiyaun Space Center, China (TSC)
Object type
Payload
Rocket body
Debris
Shape & HBR
Unknown shape, 0.1 m
Radar Cross Section
Medium (>0.1 m² and <1 m²)

Expand to show TLE details & history
Last TLE update: 1 week ago

TLE from 1 week ago
0 FENGYUN 1C DEB
1 30708U 99025ARS 26153.84817510  .00000251  00000-0  15964-3 0  9990
2 30708  98.6817 167.1980 0009547  74.1847  48.8922 14.12280449992656
Epoch: 2026-06-02T20:21Z
TLE epoch observation values (Epoch: 2026-06-02T20:21:22.328Z)
Latitude
55.94867°
Longitude
163.52791°
Altitude
856.327 km
Speed
7.432 km/s
True Right ascension
00h 00m 44s
True Declination
55° 47' 28"
Sunlit
Object was in daylight at epoch
Visualization orbit readout
Latitude
Unknown
Longitude
Unknown
Altitude
Unknown
Speed
Unknown
Apparent Right ascension
Unknown
Apparent Declination
Unknown
Sunlit
N/A
Visualization observer readout
Local Sidereal Time
00:52:46
Azimuth
Unknown
Elevation
Unknown
Doppler factor
Unknown
Orbital elements
Apogee altitude
855.646 km
Perigee altitude
841.847 km
Semi-major axis
7,226.883 km
Eccentricity
0.00095
Inclination
98.6817°
RAAN
167.198°
Arg. of periapsis
74.1847°
True anomaly
48.9747°
Mean anomaly
48.8922°
Eccentric anomaly
48.93344°
Mean motion
3.53278 °/min
Orbital period
101.9 mins
BSTAR
0.00015964
Loading maneuver chart data...
Computing Atmospheric mass density...
Loading historical data...
Loading historical data...
Loading historical data...
Loading historical data...
Loading historical data...
Loading historical data...
Loading historical data...

Documentation

Showing up to 5 results
|